Flag for Canada Weather past 2 weeks in Camrose, Alberta, Canada

Now
43 °F

Scattered clouds.


Feels Like: 43 °F
Forecast: 28 / 49 °F
Wind: 2 mph from North

Location: Edmonton International


UV Index: 3 (Moderate)

Visibility: 15 mi


Pressure: 29.87 "Hg

Humidity: 71%

Dew point: 34 °F

Location of CamroseLocation

Historic Weather in Camrose

°F

Camrose temperature yesterday

Maximum temperature yesterday: 34 °F (at 4:00 PM)
Minimum temperature yesterday: 28 °F (at 12:00 AM)
Average temperature yesterday: 31 °F

Past Weeks' High & Low Weather Summary

 TemperatureHumidityPressure
High54 °F (Apr 14, 4:00 PM)93% (Apr 5, 4:00 AM)30.52 "Hg (Apr 5, 4:00 AM)
Low21 °F (Apr 12, 5:00 AM)28% (Apr 14, 4:00 PM)29.59 "Hg (Apr 8, 7:50 PM)
Average34 °F69%29.95 "Hg
* Reported Apr 4 11:00 AM — Apr 19 11:00 AM, Camrose, Weather by CustomWeather, © 2014

Note: Actual official high and low records may vary slightly from our data, if they occured in-between our weather recording intervals... More about our weather records

Advertising

Historic Weather Conditions — Data for Previous 24 hours

 ConditionsComfort  
Time TempWeatherWind HumidityBarometerVisibility
11:00 AM
Apr 19
39 °FScattered clouds.5 mph75%29.89 "Hg15 mi
10:00 AM36 °FPartly sunny.2 mph81%29.90 "Hg15 mi
9:00 AM34 °FPassing clouds.No wind81%29.90 "Hg15 mi
8:00 AM28 °FPassing clouds.2 mph93%29.90 "Hg12 mi
7:00 AM25 °FPassing clouds.2 mph93%29.90 "Hg15 mi
6:00 AM23 °FPassing clouds.3 mph86%29.91 "Hg9 mi
5:00 AM23 °FPassing clouds.6 mph93%29.91 "Hg15 mi
4:00 AM25 °FPassing clouds.6 mph93%29.90 "Hg15 mi
3:00 AM30 °FPassing clouds.6 mph86%29.90 "Hg15 mi
2:00 AM32 °FOvercast.2 mph87%29.90 "Hg15 mi
1:00 AM32 °FOvercast.5 mph87%29.91 "Hg15 mi
12:00 AM32 °FOvercast.3 mph87%29.91 "Hg15 mi
11:00 PM
Apr 18
32 °FMostly cloudy.2 mph87%29.91 "Hg15 mi
10:00 PM32 °FOvercast.3 mph87%29.91 "Hg15 mi
9:00 PM34 °FOvercast.7 mph81%29.90 "Hg15 mi
8:00 PM34 °FMostly cloudy.7 mph81%29.88 "Hg15 mi
7:00 PM34 °FOvercast.8 mph81%29.87 "Hg15 mi
6:00 PM34 °FMostly cloudy.10 mph81%29.85 "Hg15 mi
5:00 PM34 °FOvercast.12 mph81%29.84 "Hg15 mi
4:00 PM34 °FLow clouds.12 mph81%29.83 "Hg10 mi
3:00 PM32 °FIce fog.10 mph87%29.81 "Hg6 mi
2:00 PM32 °FIce fog.12 mph87%29.80 "Hg6 mi
1:00 PM32 °FIce fog.14 mph87%29.78 "Hg6 mi
Weather by CustomWeather, © 2014

See weather overview